Regional Weather Roundup
Issued by NWS Grand Forks, ND

Home | Current Version | Previous Version | Text Only | Print | Product List | Glossary Off
Versions: 1 2 3 4 5 6 7 8 9 10 11 12 13 14 15 16 17 18 19 20 21 22 23 24 25 26 27 28 29 30 31 32 33 34 35 36 37 38 39 40 41 42 43 44 45 46 47 48 49 50

000
ASUS43 KFGF 240831
RWRFGF
PRAIRIE TO PINES  WEATHER ROUNDUP
NATIONAL WEATHER SERVICE EASTERN NORTH DAKOTA/GRAND FORKS ND
300 AM CDT TUE APR 24 2018

 **SATELLITE DATA USED TO AUGMENT SKY COVER AT AUTOMATED STATIONS**
 *****  WEATHER ACROSS EASTERN NORTH DAKOTA  *****

CITY           SKY/WX    TMP DP  RH WIND       PRES   REMARKS
GRAND FORKS    CLOUDY    43  36  76 N13       30.26R
GRAND FRKS AFB CLOUDY    44  34  66 N13       30.27R
GRAND FRKS NWS   N/A     44  36  74 N6        30.25R
DEVILS LAKE    CLOUDY    40  32  73 N8        30.32R
FARGO          CLOUDY    49  38  65 N18       30.20F
WAHPETON ARPT  CLOUDY    48  36  61 N10       30.19S
$$

 ***** WEATHER ACROSS CENTRAL AND WESTERN NORTH DAKOTA  *****

CITY           SKY/WX    TMP DP  RH WIND       PRES   REMARKS
BISMARCK       RAIN      41  36  82 N21G26    30.34R
MINOT          FAIR      33  25  72 NW10      30.38R WCI  25
JAMESTOWN      CLOUDY    43  34  70 N16       30.26R
MINOT AFB      FAIR      33  25  73 NW10      30.37R WCI  24
GARRISON         N/A     37  31  78 N8        30.37R
WILLISTON      FAIR      29  22  75 CALM      30.44R
DICKINSON      CLOUDY    38  32  79 N6        30.36S
HETTINGER      MIX PCPN  33  31  92 N20       30.36S FOG     WCI  21
$$

 *****  OTHER AIRPORT OBSERVATIONS IN OUR AREA  *****

CITY           SKY/WX    TMP DP  RH WIND       PRES   REMARKS
WALHALLA       FAIR      39  32  75 NW12      30.32R
GRAFTON AIRPOR FAIR      43  34  70 N13       30.31R
VALLEY CITY AR LGT RAIN  45  39  81 N16       30.27R
CANDO          FAIR      39  28  65 N10       30.35R
CAVALIER APRT    N/A     41  32  70 NW13      30.31R
GWINNER          N/A     48  39  71 N17       30.21S
SHEYENNE NWR     N/A     51  39  63 N12       29.95S
ROLLA          FAIR      32  28  86 N9        30.34R WCI  24
 ***** THE ABOVE OBSERVATIONS ARE NON NWS ARE NOT QUALITY
       CONTROLLED AND MAY MIS-REPORT RAIN FOR SNOW...
$$

  *****  WEATHER ACROSS NORTHERN MINNESOTA  *****

CITY           SKY/WX    TMP DP  RH WIND       PRES   REMARKS
FLAG ISLAND    MOCLDY    39  30  70 N13       30.24R
WARROAD        CLOUDY    43  34  70 N9        30.25R
ROSEAU         MOCLDY    43  36  75 N10       30.26R
HALLOCK        FAIR      43  34  70 N8        30.28R
THF RVR FALLS  CLOUDY    46  33  60 N15       30.24R
BAUDETTE       CLOUDY    40  31  70 N9        30.21R
WASKISH        FAIR      37  30  75 NW3       30.20R
CROOKSTON      CLOUDY    45  37  76 N15       30.26R
STEPHEN NDAWN    N/A     43  34  70 VRB12       N/A
GREENBUSH NDAW   N/A     39  34  81 NW7         N/A
$$
  *****  WEATHER ACROSS CENTRAL AND WEST MINNESOTA  *****

CITY           SKY/WX    TMP DP  RH WIND       PRES   REMARKS
FOSSTON        CLOUDY    41  34  75 N8        30.21S
BEMIDJI        CLOUDY    38  29  70 NW5       30.18F
PARK RAPIDS    FAIR      39  32  76 N3        30.17S
ELBOW LAKE     CLOUDY    47  36  66 NE7       30.17S
WADENA         FAIR      43  32  65 N5        30.17S
DETROIT LAKES  FAIR      46  34  61 N6        30.20S
MOORHEAD       CLOUDY    46  39  76 N13       30.21S
FERGUS FALLS   CLOUDY    48  36  61 NE3       30.16R
MORRIS MN      FAIR      43  37  81 NW6       30.16R
STAPLES        FAIR      37  30  75 NW3       30.16S
$$
  *****  WEATHER ELSEWHERE ACROSS MINNESOTA  *****

CITY           SKY/WX    TMP DP  RH WIND       PRES   REMARKS
DULUTH         FAIR      47  29  49 N10       30.13S
INTRNTL FALLS  FAIR      31  27  85 NE5       30.18S
ELY            FAIR      30  25  80 CALM      30.16S
CLOQUET        FAIR      46  27  46 N3        30.14R
WHEATON        MOCLDY    46  43  87 CALM      30.20S
BRAINERD       FAIR      44  29  55 N5        30.15F
HIBBING        FAIR      32  26  78 NW3       30.14F
ALEXANDRIA     FAIR      47  33  58 N5        30.16S
SAINT CLOUD    FAIR      43  36  76 N6        30.12F
MINNEAPOLIS    FAIR      49  40  71 CALM      30.13S
$$

  *****  WEATHER ACROSS SOUTH DAKOTA  *****

CITY           SKY/WX    TMP DP  RH WIND       PRES   REMARKS
SIOUX FALLS    CLOUDY    47  41  80 CALM      30.14S
BROOKINGS      CLOUDY    49  41  74 NE3       30.15S
WATERTOWN      CLOUDY    49  41  74 S3        30.15R
HURON          LGT RAIN  54  43  66 SW7       30.14R
SISSETON         N/A     50  42  74 N6        30.18R
ABERDEEN       LGT RAIN  51  42  71 N8        30.20R
MITCHELL       FAIR      52  43  71 S6        30.13S
PIERRE         CLOUDY    49  46  90 S12       30.08S
MOBRIDGE       RAIN      45  40  82 N22G32    30.19R
RAPID CITY     LGT SNOW  34  32  92 NW31G40   30.32R FOG     WCI  20
$$

  *****  SOME WEATHER IN NEARBY STATES *****

CITY           SKY/WX    TMP DP  RH WIND       PRES   REMARKS
GLASGOW MT     FAIR      34  24  67 E3        30.43S
GREAT FALLS MT FAIR      30  24  78 S10       30.45F WCI  21
CHEYENNE WY    CLOUDY    31  28  89 MISG      30.30S
SCOTTSBLUFF NE CLOUDY    38  34  85 NW24G31   30.31S
OMAHA NE       MOCLDY    47  36  65 NW7       30.12F
DES MOINES IA  FAIR      53  32  44 NE5       30.10F
DAVENPORT IA   FAIR      47  33  58 N6        30.09S
CHICAGO IL     CLOUDY    49  34  56 N3        30.05F
EAU CLAIRE WI  FAIR      39  33  79 CALM      30.11F
LA CROSSE WI   FAIR      46  34  62 CALM      30.12F
$$

  *****  SOME NATIONAL WEATHER *****

CITY           SKY/WX    TMP DP  RH WIND       PRES   REMARKS
LA GUARDIA NY  FAIR      48  42  80 SE5       30.40S
RALEIGH NC     LGT RAIN  54  53  97 E12       30.09F
ATLANTA GA     FOG       60  60 100 SW5       29.83S VSB 1
NEW ORLEANS LA MOCLDY    62  59  90 S6        29.98F
OKLAHOMA CITY  FAIR      57  47  69 NE5       30.05S
ALBUQUERQUE NM FAIR      56  24  29 SE6       30.08R
SALT LAKE CITY FAIR      46  36  68 N3        30.21R
LOS ANGELES CA CLOUDY    56  52  86 CALM      30.02S FOG
BOISE ID       FAIR      49  38  65 SE12      30.28R
SEATTLE WA     FAIR      57  34  41 NE12      30.23S
$$

*** WEATHER ACROSS MANITOBA...SASKATCHEWAN AND ONTARIO ***
                ***ONTARIO***

CITY           SKY/WX    TMP DP  RH WIND       PRES   REMARKS
GERALDTON      PTCLDY    32  28  86 W5        30.11S
THUNDER BAY    CLEAR     36  28  75 NW3       30.16R
SIOUX LOOKOUT  PTCLDY    27  25  93 NW2       30.17S
TORONTO        MOCLDY    46  27  46 SE2       30.17S
BIG TROUT LK   CLOUDY    25  19  80 NW7       30.14R WCI  17
PICKLE LAKE    NOT AVBL
DRYDEN         CLOUDY    36  28  75 NW6       30.19R
KENORA         MOCLDY    37  28  70 N5        30.22
$$
                *** MANITOBA***

CITY           SKY/WX    TMP DP  RH WIND       PRES   REMARKS
BRANDON        PTCLDY    28  27  93 NW10      30.36R WCI  19
DAUPHIN        CLEAR     30  27  86 N6        30.39R WCI  24
ISLAND LAKE    NOT AVBL
PILOT MOUND      N/A     34  27  75 NW3         N/A
THE PAS        CLEAR     25  21  86 E3        30.38S
THOMPSON       CLEAR     10   9  92 W2        30.36R
WINNIPEG       PTCLDY    30  27  86 NE2       30.32R
LYNN LAKE      CLEAR     12  12 100 SW5       30.30S WCI   4
CHURCHILL      PTCLDY    12   9  85 W6        30.31S WCI   3
GILLAM         FLURRIES  16  12  86 NW7       30.32R WCI   6
$$
                ***SASKATCHEWAN***

CITY           SKY/WX    TMP DP  RH WIND       PRES   REMARKS
ESTEVAN        PTCLDY    27  21  80 W6        30.41R WCI  20
KINDERSLEY     CLEAR     32  27  80 SW7       30.36F
LLOYDMINSTER   PTCLDY    37  28  70 SW9       30.29F
PRINCE ALBERT  CLEAR     30  23  74 E6        30.37R WCI  24
REGINA         CLEAR     30  23  74 SW5       30.40S
YORKTON        CLEAR     32  27  80 W6        30.37R
N. BATTLEFORD  CLEAR     32  25  74 SE3       30.35F
LA RONGE       CLEAR     30  25  80 S7        30.33S WCI  23
SASKATOON      CLEAR     32  25  74 SW8       30.38S WCI  25
SWIFT CURRENT  CLEAR     34  21  60 S12       30.39S
$$
NOTE: THESE ARE AUTOMATED STATIONS WITH LIMITED QUALITY CONTROL
      "FAIR" INDICATES FEW OR NO CLOUDS BELOW 12,000 FEET WITH NO
      SIGNIFICANT WEATHER AND/OR OBSTRUCTIONS TO VISIBILITY.
      SKY/WX - SKY CONDITION AND SIGNIFICANT WEATHER.
      TMP - AIR TEMPERATURE.    DP   - DEWPOINT TEMPERATURE.
      RH  - RELATIVE HUMIDITY.  PRES - PRESSURE.
      HX  - HEAT INDEX.         WCI  - WIND CHILL INDEX.
$



USA.gov is the U.S. government's official web portal to all federal, state and local government web resources and services.